GSAT0201 (GALILEO 5) (40128 NORAD) Tracking and Keplerian Element Data

This shows tracking and keplerian element data for the satellite.

Feedback or suggestion? Click here.




ElementValue
Catalog40128
NameGSAT0201 (GALILEO 5)
Epoch Orbit2687
Epoch Day315.6571267
Epoch Year2018
RAAN24.6915
Inclination50.5222
Eccentricity0.165662
Argument of Perigee80.5898
Mean Anonmoly297.7026
Mean Motion1.85519928
Decay Rate-1.13E-06
L11 40128U 14050A 18315.65712670 -.00000113 00000-0 00000-0 0 9993
L22 40128 50.5222 24.6915 1656620 80.5898 297.7026 1.85519928 26878

Live tracking and technical data element details for GSAT0201 (GALILEO 5) (NORAD 40128). GSAT0201 (GALILEO 5) can be tracked NOW for your location showing map with azimuth and elevation plus other details from your city location.

Track the satellite on the map from your city or location and see movement details for azimuth, elevation, latitude, longitude, range, height, and movement on the map or in text.







IsCatalogInMostPopularTable: catalog: 40128, numindb: 113
Update: records affected: 1



GetName: 40128 GSAT0201 (GALILEO 5)

Hit Count: updated at: Mon, 12 Nov 2018 18:20:27 GMT